Location: Camp Crooked Creek
(37.9149°N, 85.6607°W)
Time: 12:09:16
(UTC-04:00)

Daily predictions for brighter satellites

Satellite Brightness Start Highest point End
(mag) Time Altitude Azimuth Time Altitude Azimuth Time Altitude Azimuth
Aureole 2 Rocket 3.0 21:20:54 10° S 21:24:43 44° ESE 21:28:13 10° NNE
Cosmos 1331 Rocket 4.0 21:21:33 10° NNW 21:26:45 70° ENE 21:31:54 10° SSE
SeaSat 1 4.0 21:25:37 10° ESE 21:29:19 22° NE 21:33:01 10° N
Cosmos 2237 Rocket 4.3 21:30:27 10° WSW 21:35:28 33° WNW 21:40:31 10° N
USA 186 2.0 21:34:07 10° S 21:36:58 57° W 21:39:38 10° NNW
Cosmos 1302 Rocket 4.3 21:32:34 10° N 21:37:40 51° ENE 21:42:46 10° SE
CZ-2C R/B 0.5 21:36:37 10° SSE 21:38:52 57° ENE 21:41:09 10° N
DEBRIS 3.5 21:37:17 10° NW 21:43:25 47° NNE 21:45:47 11° E
Cosmos 1726 Rocket 3.9 21:40:15 10° NNW 21:44:41 71° W 21:49:04 10° S
Cosmos 2278 Rocket 3.7 21:40:05 10° NW 21:45:10 35° WSW 21:50:15 10° SSW
Cosmos 1461 3.5 21:42:16 10° NNW 21:46:22 42° NE 21:49:44 13° SE
ATLAS 3B R/B 3.9 21:42:59 10° SSE 21:48:55 25° ESE 21:54:48 10° ENE
SJ-11-01 4.3 21:45:06 10° SSE 21:49:44 71° ENE 21:54:23 10° N
Tsikada Rocket 4.4 21:45:07 10° SSE 21:51:12 47° E 21:57:16 10° NNE
Cosmos 2369 Rocket 3.9 21:53:45 10° N 21:57:49 20° NE 22:01:39 11° E
Cosmos 2058 Rocket 3.6 21:56:46 10° NNW 22:01:06 61° W 22:05:22 10° S
Cosmos 1666 2.7 21:58:17 10° N 22:02:12 86° E 22:05:58 11° S
APEX 3.8 21:58:05 10° NNW 22:02:20 89° WSW 22:07:15 13° SSE
Cosmos 1602 Rocket 3.6 21:58:28 10° S 22:02:54 68° E 22:07:21 10° NNE
ERS-1 Rocket 3.1 21:57:57 10° S 22:02:57 77° WSW 22:07:59 10° NNW
Cosmos 2285 Rocket 4.2 21:57:04 10° NNW 22:03:22 72° WSW 22:09:41 10° S
SL-16 R/B 3.6 21:58:36 10° SW 22:03:56 43° WNW 22:09:18 10° N
Abrixas rocket 2.4 22:00:42 10° WNW 22:04:06 70° SW 22:06:15 21° SE
Atlas Centaur 2 3.3 21:58:07 10° SW 22:05:00 43° SSE 22:12:42 11° E
Meteor 1-15 Rocket 4.3 22:01:28 10° N 22:07:05 85° W 22:12:45 10° S
USA 234 4.1 22:01:17 10° E 22:07:18 41° NNE 22:13:21 10° NW
Envisat 3.1 22:05:31 14° SSE 22:09:48 64° ENE 22:14:50 10° N
Cosmos 1464 Rocket 4.2 22:05:43 10° NNW 22:11:50 72° W 22:17:57 10° S
ISS -3.5 22:11:24 10° SW 22:14:39 74° SE 22:17:55 10° NE
Cosmos 1812 Rocket 3.8 22:11:09 10° N 22:15:27 53° E 22:18:12 21° SSE
deb Chang Zheng 4 4.4 22:12:18 10° N 22:16:36 53° WNW 22:20:50 10° SSW
PSLV R/B 3.5 22:15:48 10° W 22:19:20 73° NNW 22:22:54 10° ENE
Cosmos 1939 Rocket 3.0 22:16:38 14° S 22:20:08 76° WSW 22:24:18 10° NNW
GRACE-1 3.9 22:20:11 10° N 22:23:03 87° W 22:24:31 26° S
GRACE-2 3.9 22:20:37 10° N 22:23:30 86° W 22:24:56 26° S
H-2A R/B 3.0 22:22:29 10° S 22:26:32 46° W 22:30:43 10° NNW
SPOT 5 2.5 22:24:58 21° SSE 22:27:54 83° ENE 22:32:15 10° NNW
COSMOS 2455 2.8 22:23:40 10° SSW 22:29:39 84° ESE 22:35:42 10° NNE
Cosmos 1515 3.8 22:28:51 26° SSE 22:30:46 57° E 22:34:34 10° NNE
Cosmos 2034 Rocket 4.3 22:24:47 10° NNW 22:31:07 68° W 22:37:22 10° S
Cosmos 1634 Rocket 4.4 22:25:34 10° N 22:31:27 44° ENE 22:34:40 25° SE
Cosmos 1603 4.1 22:27:21 10° SSW 22:32:55 64° WNW 22:38:29 10° NNE
CZ-4 SHROUD 3.5 22:31:44 28° S 22:33:13 65° WSW 22:36:23 10° NNW
BREEZE-M DEB (TANK) 2.8 22:33:12 10° WNW 22:35:16 32° SW 22:35:26 31° SW
USA 81 4.4 22:30:11 10° N 22:35:18 47° E 22:37:42 28° SE
Cosmos 1626 Rocket 4.4 22:31:14 10° SSW 22:35:33 50° W 22:39:53 10° N
YAOGAN 6 2.8 22:39:45 39° SE 22:40:50 58° ENE 22:44:31 10° N
Terra 3.4 22:43:54 19° E 22:45:08 21° ENE 22:48:39 10° NNE
Meteor 2-12 Rocket 4.4 22:39:35 10° N 22:45:42 86° E 22:49:33 24° S
Cosmos 1992 Rocket 4.0 22:43:06 10° NNW 22:48:20 67° ENE 22:50:30 35° SE
Cosmos 1346 Rocket 3.0 22:48:51 43° ESE 22:49:13 44° E 22:52:58 10° NNE
Cosmos 1953 Rocket 3.7 22:52:36 42° SE 22:53:42 55° E 22:58:03 10° NNE
Cosmos 1943 3.1 22:50:41 10° SSW 22:56:20 82° ESE 23:02:03 10° NNE
MetOp-A 4.4 22:55:39 25° S 22:58:45 67° WSW 23:04:06 10° NNW
H-2A R/B 2.9 22:57:40 28° E 22:58:53 32° ENE 23:03:18 10° N
Cosmos 2346 Rocket 4.4 22:56:16 22° S 23:00:28 84° E 23:06:39 10° N
Cosmos 1943 Rocket 3.5 22:58:23 10° N 23:02:56 25° ENE 23:04:49 21° E
Lacrosse 4 Rocket 1.2 23:03:02 59° SSE 23:03:27 64° ESE 23:07:29 10° NNE
Geosat 4.0 22:59:55 10° NNE 23:04:54 59° ESE 23:06:36 38° S
Meteor 1-21 4.5 23:03:33 38° SE 23:05:24 52° E 23:11:01 10° NNE
SeaSat 1 3.0 23:04:20 30° S 23:06:30 50° WSW 23:11:18 10° NW
Cosmos 1190 Rocket 3.9 23:03:10 23° SSW 23:06:33 87° ESE 23:11:54 10° NNE
SPOT 1/Viking Rocket 3.6 23:05:20 36° S 23:07:32 78° WSW 23:12:42 10° NNW
Cosmos 1900 4.4 23:07:02 37° S 23:08:57 63° ESE 23:14:02 10° NE
Cosmos-2242 4.2 23:07:48 10° NNE 23:11:38 29° ENE 23:11:38 29° ENE
Milstar 3 Cent rocket 4.3 23:14:57 10° SW 23:16:06 11° SW 23:16:23 11° SSW
CZ-4B R/B 4.4 23:12:30 10° N 23:17:23 48° WNW 23:22:07 11° SW
Cosmos 676 Rocket 3.9 23:21:48 49° S 23:23:11 72° ESE 23:28:31 10° NNE
DELTA 2 DEB (DPAF) 4.0 23:22:59 65° SSE 23:23:38 89° WSW 23:28:10 10° NNW
DMSP B5D2-2 4.2 23:20:36 10° NNE 23:25:46 53° E 23:26:13 51° ESE
Cosmos 1766 3.4 23:22:43 10° N 23:26:30 67° NE 23:26:30 67° NE
Cosmos 1758 Rocket 3.6 23:27:02 57° SW 23:27:50 74° W 23:32:13 10° N
Cosmos 1140 Rocket 4.2 23:28:55 36° E 23:28:55 36° E 23:33:08 10° NE
CARTOSAT-1 3.6 23:31:25 64° ENE 23:31:25 64° ENE 23:35:43 10° N
ARGOS 3.6 23:33:16 38° SSW 23:35:04 55° W 23:40:24 10° NNW
ATLAS 3B R/B 3.2 23:31:25 10° SW 23:39:06 69° NW 23:46:39 10° NNE
Cosmos 2369 Rocket 2.5 23:36:42 10° NNW 23:42:15 58° WSW 23:43:27 48° SSW
CZ-4C R/B 4.1 23:46:15 46° WSW 23:46:23 46° W 23:50:23 10° NNW
USA 234 3.4 23:48:30 48° S 23:50:05 61° SW 23:56:35 10° NW
ISS -0.2 23:49:13 10° WNW 23:51:25 17° NNW 23:53:37 10° NNE
SL-27 R/B 4.4 23:54:51 24° NNE 23:54:51 24° NNE 23:56:19 10° NNE
